Location: Chimay
(50.0486°N, 4.3171°E)
Time: 21:48:25
(UTC+00:00)

Cosmos 1833 - Pass Details

Date: 08 August 2020
Orbit: 836 x 863 km, 70.9° (Epoch: 22 September)

Event Time Altitude Azimuth Distance (km) Brightness Sun altitude
Exits shadow 23:28:27 57° 206° (SSW) 985 4.2 -24.0°
Maximum altitude 23:29:41 89° 115° (ESE) 847 4.1 -24.0°
Drops below altitude 10° 23:35:23 10° 30° (NNE) 2,472 7.4 -24.1°
Sets 23:37:50 0° 30° (NNE) 3,415 8.3 -24.1°
